Location: Cisewo
(53.3833°N, 14.9000°E)
Time: 13:00:06
(UTC+00:00)

IGS 5A - Pass Details

Date: 18 April 2021
Orbit: 583 x 588 km, 97.6° (Epoch: 06 May)

Event Time Altitude Azimuth Distance (km) Brightness Sun altitude
Exits shadow 19:27:45 11° 163° (SSE) 1,853 5.5 -11.4°
Maximum altitude 19:31:46 86° 75° (ENE) 594 3.4 -11.9°
Drops below altitude 10° 19:35:56 10° 347° (NNW) 1,919 6.9 -12.4°
Sets 19:38:06 0° 347° (NNW) 2,824 7.9 -12.6°
